This demonstration page uses our WeatherBlox Daily Observations layout. Learn more.

Left ArrowRight Arrow

Hourly Observations for June 21, 2021

Temp ( °F °C ) Dew Point ( °F °C ) Humidity (%) Winds ( mph kmh ) Pressure ( in mb ) Visibility ( mi km ) Precip ( " mm )
12:51 am 00:51 Mostly Clear 90 32.2 40 4.4 17 17 NNW 14 22 29.67 1005 10 16 N/A
1:51 am 01:51 Clear 89 31.7 42 5.6 19 19 NW 14 22 29.67 1005 10 16 N/A
2:51 am 02:51 Clear 88 31.1 44 6.7 22 22 NW 16 26 29.67 1005 10 16 N/A
3:51 am 03:51 Clear 86 30 43 6.1 22 22 NW 14 22 29.70 1006 10 16 N/A
4:51 am 04:51 Clear 85 29.4 48 8.9 28 28 NW 14 22 29.73 1007 10 16 N/A
5:51 am 05:51 Sunny 85 29.4 53 11.7 33 33 NW 20 31 29.75 1007 10 16 N/A
6:51 am 06:51 Sunny 86 30 54 12.2 33 33 NW 18 30 29.78 1009 10 16 N/A
7:51 am 07:51 Mostly Sunny 88 31.1 53 11.7 30 30 NW 25 41 29.79 1009 10 16 N/A
8:51 am 08:51 Sunny 91 32.8 52 11.1 26 26 NW 24 39 29.79 1009 10 16 N/A
9:51 am 09:51 Sunny 93 33.9 53 11.7 26 26 NW 20 31 29.78 1009 10 16 N/A
10:51 am 10:51 Sunny 97 36.1 52 11.1 22 22 WNW 23 37 29.78 1008 10 16 N/A
11:51 am 11:51 Sunny 99 37.2 49 9.4 18 18 WNW 20 31 29.75 1008 10 16 N/A
12:51 pm 12:51 Sunny 102 38.9 45 7.2 14 14 WNW 24 39 29.72 1007 10 16 N/A
1:51 pm 13:51 Mostly Sunny 104 40 45 7.2 13 13 NW 28 44 29.70 1006 10 16 N/A
2:51 pm 14:51 Partly Cloudy 104 40 45 7.2 13 13 WNW 28 44 29.67 1005 10 16 N/A
3:51 pm 15:51 Cloudy 105 40.6 41 5 11 11 NW 23 37 29.65 1004 10 16 N/A
4:51 pm 16:51 Cloudy 104 40 42 5.6 12 12 NW 21 33 29.64 1004 10 16 N/A
5:51 pm 17:51 Mostly Cloudy 102 38.9 40 4.4 12 12 WNW 24 39 29.63 1003 10 16 N/A
6:51 pm 18:51 Mostly Cloudy 98 36.7 42 5.6 15 15 WNW 17 28 29.66 1004 10 16 N/A
7:51 pm 19:51 Mostly Cloudy 94 34.4 40 4.4 15 15 WNW 17 28 29.69 1005 10 16 N/A
8:51 pm 20:51 Partly Cloudy 91 32.8 41 5 17 17 NW 13 20 29.71 1006 10 16 N/A
9:51 pm 21:51 Mostly Clear 89 31.7 40 4.4 18 18 NW 13 20 29.74 1007 10 16 N/A
10:51 pm 22:51 Clear 88 31.1 39 3.9 18 18 NW 14 22 29.73 1007 10 16 N/A
11:51 pm 23:51 Mostly Clear 87 30.6 38 3.3 18 18 NW 12 19 29.72 1007 10 16 N/A

Powered by AerisWeather